Weather History for Andover, NJ

Change the Weather History Date:

Thursday, February 14, 2013

  Actual Average (KFWN) Record (KFWN)
Temperature  
Mean Temperature 35 °F -  
Max Temperature 42 °F 35 °F 61 °F (1949)
Min Temperature 28 °F 14 °F -15 °F (1967)
Degree Days  
Heating Degree Days 30    
Moisture  
Dew Point 27 °F    
Average Humidity 77    
Maximum Humidity 96    
Minimum Humidity 51    
Precipitation  
Precipitation 0.00 in - - ()
Sea Level Pressure  
Sea Level Pressure 29.92 in    
Wind  
Wind Speed 1 mph (SSW)    
Max Wind Speed 7 mph    
Max Gust Speed -    
Averages and records for this station are not official NWS values.
T = Trace of Precipitation, MM = Missing Value Source: NWS Daily Summary

Daily Weather History Graph

Daily Weather History Graph

Search for Another Location

Airport:

Trip Planner

Search our weather history database for the weather conditions in past years. The results will help you decide how hot, cold, wet, or windy it might be!

Date:

Astronomy

Feb. 14, 2013 Rise Set
Actual Time 6:54 AM EST 5:32 PM EST
Civil Twilight 6:26 AM EST 6:00 PM EST
Nautical Twilight 5:53 AM EST 6:32 PM EST
Astronomical Twilight 5:22 AM EST 7:04 PM EST
Moon 8:52 AM EST (2/14) 10:35 PM EST (2/14)
Length of Visible Light 11h 34m
Length of Day
10h 38m
Waxing Crescent, 21% of the Moon is Illuminated
Feb 14
Waxing Crescent
Feb 17
First Quarter
Feb 25
Full
Mar 4
Last Quarter
Mar 11
New

Hourly Weather History & Observations

Time (EST) Temp. Windchill Dew Point Humidity Pressure Visibility Wind Dir Wind Speed Gust Speed Precip Events Conditions
12:54 AM 32.0 °F - 30.0 °F 92% 29.73 in - Calm Calm - N/A   Unknown
1:54 AM 33.1 °F - 30.9 °F 92% 29.76 in - Calm Calm - N/A   Unknown
2:54 AM 33.1 °F - 30.9 °F 92% 29.79 in - Calm Calm - N/A   Unknown
3:54 AM 32.0 °F - 30.0 °F 92% 29.81 in - Calm Calm - N/A   Unknown
4:54 AM 30.9 °F - 30.0 °F 96% 29.83 in - Calm Calm - N/A   Unknown
5:54 AM 28.0 °F - 25.0 °F 88% 29.86 in - Calm Calm - N/A   Unknown
6:54 AM 28.0 °F - 27.0 °F 96% 29.90 in - Calm Calm - N/A   Unknown
7:54 AM 28.0 °F 24.2 °F 27.0 °F 96% 29.94 in - South 3.5 mph - N/A   Unknown
8:54 AM 30.9 °F - 28.9 °F 92% 29.96 in - Calm Calm - N/A   Unknown
9:54 AM 35.1 °F 29.3 °F 24.1 °F 64% 29.97 in - Variable 6.9 mph - N/A   Unknown
10:54 AM 37.9 °F 34.4 °F 23.0 °F 55% 29.96 in - Variable 4.6 mph - N/A   Unknown
11:54 AM 39.9 °F 36.7 °F 24.1 °F 53% 29.96 in - Variable 4.6 mph - N/A   Unknown
12:54 PM 39.9 °F 36.7 °F 24.1 °F 53% 29.94 in - Variable 4.6 mph - N/A   Unknown
1:54 PM 41.0 °F 37.1 °F 24.1 °F 51% 29.94 in - South 5.8 mph - N/A   Unknown
2:54 PM 42.1 °F 38.4 °F 25.0 °F 51% 29.94 in - SSW 5.8 mph - N/A   Unknown
3:54 PM 42.1 °F 37.7 °F 26.1 °F 53% 29.95 in - WSW 6.9 mph - N/A   Unknown
4:54 PM 41.0 °F 36.4 °F 26.1 °F 55% 29.96 in - SW 6.9 mph - N/A   Unknown
5:54 PM 36.0 °F - 26.1 °F 67% 29.97 in - Calm Calm - N/A   Unknown
6:54 PM 34.0 °F - 27.0 °F 75% 29.99 in - Calm Calm - N/A   Unknown
7:54 PM 30.9 °F - 27.0 °F 85% 29.99 in - Calm Calm - N/A   Unknown
8:54 PM 30.9 °F - 27.0 °F 85% 30.00 in - Calm Calm - N/A   Unknown
9:54 PM 28.0 °F - 25.0 °F 88% 30.01 in - Calm Calm - N/A   Unknown
10:54 PM 28.0 °F - 25.0 °F 88% 30.00 in - Calm Calm - N/A   Unknown
11:54 PM 28.0 °F - 26.1 °F 92% 30.00 in - Calm Calm - N/A   Unknown